sat.trackr.live / text

‹ back to catalog

STARLINK-37379

NORAD 69522 · 2026-133Q

PAYLOAD ACTIVE UNKNOWN

§ Identity

Operator
Country
US
Launch date
2026-06-12
Launch site
AFETR
Launch vehicle
Mass (kg)
RCS (m²)

Purposes: comms

External: N2YO · Heavens-Above · Gunter

§ Orbital elements

Epoch: 2026-09-19T10:38:45.933216Z

Period
93.85 min
Inclination
53.1566°
Eccentricity
0.0001901
Mean motion
15.34422510 rev/d
Perigee alt
461.3 km
Apogee alt
463.9 km
Semi-major
6,840.8 km
B*
4.5048e-4
RAAN
234.5229°
Arg perigee
99.3891°
Mean anomaly
260.7326°
Rev number
1,660

§ Raw data

STARLINK-373791 69522U 26133Q   26262.44358719  .00014885  00000+0  45048-3 0  99972 69522  53.1566 234.5229 0001901  99.3891 260.7326 15.34422510 16605

JSON: /api/v1/satellites/69522 · /tle

For live sub-satellite position, see the globe view (requires WebGL).

§ Visibility from observer

Set your observer location to see the next 7 days of passes ≥ 10°. The values pass through the URL so the page stays shareable.

No JS? Fill the form by hand. The geolocation button needs JavaScript.